Probability
0 0 0 0 0 0 0 0 0 0 0 0 0 0 0 0 0 0 0 0 0 3 100 100 100 97 97 87 71 71 87 100 100 100 100 100 100 100 100 100 100 100 100 100 100 100 100 100 100
0 0 0 0 0 0 0 0 0 0 0 0 0 0 0 6 10 0 0 0 0 39 100 100 100 100 100 97 90 77 87 97 97 100 100 100 100 100 100 100 100 100 100 100 100 100 100 100 97
0 0 0 0 0 0 0 0 0 0 0 0 0 0 0 13 32 0 0 0 0 65 100 100 100 100 100 100 94 84 81 87 94 94 100 100 100 100 100 100 100 100 100 100 100 97 97 94 97
0 0 0 0 0 0 0 0 0 0 0 0 0 0 0 26 39 0 0 0 39 84 100 100 100 100 100 100 97 94 90 77 90 94 100 97 97 100 100 100 100 100 97 97 97 94 87 84 81
0 0 0 0 0 0 0 0 0 0 0 0 0 0 0 32 13 0 0 3 52 90 97 100 100 100 100 100 100 97 97 94 94 97 97 87 97 94 94 97 94 87 74 77 74 68 58 48 45
0 0 0 0 0 0 0 0 0 0 0 0 0 0 0 29 6 3 0 3 65 94 100 100 100 100 100 100 100 100 100 100 100 97 97 94 94 97 97 94 90 94 94 97 97 94 90 100 100
0 0 0 0 0 0 0 0 0 0 0 0 0 0 0 23 35 10 3 10 68 94 100 100 100 100 100 100 100 100 100 100 100 100 97 97 100 100 100 100 100 100 100 100 100 100 100 100 100
0 0 0 0 0 0 0 0 0 0 0 0 0 0 0 16 45 19 13 6 55 97 100 100 100 100 100 100 100 100 100 100 100 100 100 100 100 100 100 100 100 100 100 100 100 100 100 100 100
0 0 0 0 0 0 0 0 0 0 0 0 3 0 0 23 45 13 6 3 29 84 100 100 100 100 100 100 100 100 100 100 100 100 100 100 100 100 100 100 100 100 100 100 100 100 100 100 100
0 0 0 0 0 0 0 0 0 0 0 0 0 3 13 55 48 16 0 0 16 39 77 90 90 90 84 94 90 90 97 100 100 100 100 100 100 100 100 100 100 100 100 100 100 100 100 100 100
0 0 0 0 0 0 0 0 0 0 0 0 0 0 48 58 39 35 19 10 6 6 35 48 55 65 71 74 74 84 90 90 97 100 100 100 100 100 100 100 100 100 100 100 100 100 94 94 97
0 0 0 0 0 0 0 0 0 0 0 0 0 3 35 42 48 48 58 45 29 13 13 13 39 42 45 52 55 71 81 84 87 94 100 100 100 100 100 100 100 100 100 100 97 94 94 97 97
0 0 0 0 0 0 0 0 0 0 3 3 0 10 23 29 23 32 42 45 35 23 19 19 23 26 23 29 39 45 58 68 77 84 90 97 94 90 81 74 77 77 71 58 55 52 65 71 87
0 0 0 0 0 0 0 0 0 3 3 6 6 0 3 3 6 3 13 6 10 13 13 13 13 16 16 16 19 29 39 48 58 61 71 74 77 58 42 29 26 13 16 16 6 6 16 23 23
0 0 0 0 0 0 0 0 0 0 0 10 6 6 3 3 3 3 0 0 0 0 3 3 10 6 6 6 6 10 16 23 39 39 39 48 58 55 29 10 0 0 0 0 0 0 0 0 0
0 0 0 0 0 0 0 6 3 0 0 6 10 10 6 3 3 0 0 0 0 0 0 0 0 3 3 3 3 6 10 16 29 26 42 52 61 58 35 3 0 0 0 0 0 0 0 0 0
0 0 0 0 0 0 0 3 0 6 0 0 3 3 3 3 0 0 0 0 0 0 0 0 0 0 0 3 3 10 10 13 26 29 39 42 65 61 13 0 0 0 0 0 0 0 0 0 0
0 0 0 0 0 0 0 0 0 3 3 3 0 0 0 0 0 0 3 3 0 0 0 0 0 0 0 0 0 0 0 3 6 23 26 39 42 55 0 0 0 0 0 0 0 0 0 0 0
0 0 0 0 0 3 0 0 0 0 0 0 0 0 0 0 0 0 0 0 0 0 0 0 0 0 0 0 0 0 0 0 3 10 29 32 32 48 3 0 0 0 0 0 0 0 0 0 0
0 0 0 3 10 3 3 3 3 0 0 0 0 0 0 0 0 0 0 0 0 0 0 0 0 0 0 0 0 0 0 0 0 3 6 13 16 16 13 0 0 0 0 0 0 0 0 0 0
0 0 0 0 3 3 0 0 3 0 0 0 0 0 0 0 0 0 0 0 0 0 0 0 0 0 0 0 0 0 0 0 0 0 0 0 3 0 0 0 0 0 0 0 0 0 0 0 0
0 0 0 0 0 0 0 0 0 0 0 0 0 0 0 0 0 0 0 0 0 0 0 0 0 0 0 0 0 0 0 0 0 0 0 0 0 0 0 0 0 0 0 0 0 0 0 0 0
0 0 0 0 0 0 0 0 0 0 0 0 0 0 0 0 0 0 0 0 0 0 0 0 0 0 0 0 0 0 0 0 0 0 0 0 0 0 0 0 0 0 0 0 0 0 0 0 0
0 0 0 0 0 0 0 0 0 0 0 0 0 0 0 0 0 0 0 0 0 0 0 0 0 0 0 0 0 0 0 0 0 0 0 0 0 0 0 0 0 0 0 0 0 0 0 0 0
0 0 0 0 0 0 0 0 0 0 0 0 0 0 0 0 0 0 0 0 0 0 0 0 0 0 0 0 0 0 0 0 0 0 0 0 0 0 0 0 0 0 0 0 0 0 0 0 0
0 0 0 0 0 0 0 0 0 0 0 0 0 0 0 0 0 0 0 0 0 0 0 0 0 0 0 0 0 0 0 0 0 0 0 0 0 0 0 0 0 0 0 0 0 0 0 0 0
0 0 0 0 0 0 0 0 0 0 0 0 0 0 0 0 0 0 0 0 0 0 0 0 0 0 0 0 0 0 0 0 0 0 0 0 0 0 0 0 0 0 0 0 0 0 0 0 0
0 0 0 0 0 0 0 0 0 0 0 0 0 0 0 0 0 0 0 0 0 0 0 0 0 0 0 0 0 0 0 0 0 0 0 0 0 0 0 0 0 0 0 0 0 0 0 0 0
0 0 0 0 0 0 0 0 0 0 0 0 0 0 0 0 0 0 0 0 0 0 0 0 0 0 0 0 0 0 0 0 0 0 0 0 0 0 0 0 0 0 0 0 0 0 0 0 0
0 0 0 0 0 0 0 0 0 0 0 0 0 0 0 0 0 0 0 0 0 0 0 0 0 0 0 0 0 0 0 0 0 0 0 0 0 0 0 0 0 0 0 0 0 0 0 0 0
Height
5915 5915 5915 5916 5916 5916 5915 5915 5914 5913 5913 5913 5912 5912 5912 5912 5912 5913 5911 5909 5909 5908 5907 5907 5906 5906 5905 5904 5903 5902 5901 5900 5900 5900 5900 5899 5899 5899 5899 5899 5898 5898 5898 5897 5896 5895 5893 5892 5892
5915 5915 5916 5916 5916 5916 5916 5915 5915 5914 5913 5913 5912 5912 5912 5911 5911 5910 5909 5908 5907 5906 5906 5906 5905 5904 5903 5903 5902 5901 5900 5900 5899 5899 5899 5899 5898 5898 5897 5897 5897 5897 5897 5896 5896 5895 5894 5893 5892
5914 5915 5916 5916 5915 5916 5916 5915 5915 5914 5914 5913 5913 5912 5912 5911 5910 5909 5908 5907 5906 5905 5905 5904 5904 5903 5902 5901 5900 5900 5900 5899 5899 5898 5898 5898 5897 5897 5896 5896 5895 5895 5895 5895 5895 5895 5894 5893 5892
5913 5914 5915 5915 5914 5914 5914 5914 5914 5914 5913 5912 5912 5912 5911 5911 5909 5908 5907 5906 5905 5904 5904 5903 5902 5901 5901 5900 5899 5899 5899 5898 5898 5897 5897 5896 5895 5895 5894 5894 5893 5893 5892 5892 5893 5893 5893 5892 5891
5911 5912 5913 5912 5912 5912 5912 5912 5912 5912 5912 5911 5911 5910 5910 5909 5908 5907 5906 5905 5904 5904 5903 5902 5901 5900 5899 5898 5898 5897 5897 5896 5895 5895 5894 5893 5892 5892 5891 5891 5890 5890 5889 5889 5889 5890 5890 5890 5890
5910 5910 5911 5910 5909 5909 5909 5910 5910 5910 5910 5909 5909 5909 5909 5908 5907 5906 5905 5904 5904 5903 5902 5900 5899 5898 5897 5896 5895 5894 5894 5893 5892 5891 5890 5889 5888 5887 5887 5886 5886 5886 5886 5886 5886 5886 5886 5887 5887
5908 5907 5908 5908 5907 5906 5906 5906 5906 5907 5907 5908 5907 5907 5907 5906 5905 5904 5903 5903 5902 5901 5899 5898 5896 5895 5894 5893 5892 5891 5890 5889 5888 5887 5886 5885 5884 5883 5882 5882 5882 5881 5881 5881 5881 5881 5881 5882 5882
5904 5905 5905 5904 5903 5903 5903 5902 5902 5903 5904 5905 5905 5905 5904 5904 5903 5902 5901 5900 5899 5897 5895 5894 5892 5891 5890 5888 5887 5886 5885 5884 5883 5882 5881 5880 5879 5878 5877 5877 5877 5876 5876 5876 5876 5876 5876 5877 5877
5901 5902 5901 5901 5900 5900 5899 5899 5899 5900 5901 5902 5902 5902 5901 5900 5900 5899 5898 5896 5895 5893 5891 5889 5887 5886 5884 5883 5882 5880 5879 5878 5877 5876 5875 5874 5873 5872 5872 5871 5871 5871 5871 5871 5870 5870 5870 5871 5871
5897 5898 5898 5897 5897 5897 5897 5896 5896 5897 5898 5898 5898 5897 5896 5896 5896 5895 5894 5892 5890 5888 5886 5884 5882 5880 5878 5877 5875 5873 5872 5870 5869 5869 5868 5867 5867 5866 5866 5866 5865 5865 5865 5865 5864 5864 5864 5865 5865
5893 5894 5894 5894 5893 5894 5894 5893 5892 5892 5893 5893 5893 5892 5891 5891 5890 5890 5889 5888 5886 5884 5882 5879 5877 5874 5872 5869 5867 5866 5864 5862 5861 5860 5859 5859 5859 5859 5859 5859 5859 5858 5858 5858 5858 5857 5858 5859 5860
5889 5889 5889 5890 5889 5889 5890 5889 5888 5887 5887 5887 5887 5886 5886 5885 5885 5885 5885 5883 5880 5877 5875 5872 5870 5867 5863 5861 5858 5856 5854 5853 5852 5851 5850 5851 5851 5852 5852 5853 5852 5852 5851 5852 5851 5851 5852 5853 5854
5884 5885 5884 5884 5883 5883 5883 5883 5881 5881 5881 5880 5880 5880 5880 5880 5880 5880 5879 5877 5874 5871 5868 5864 5861 5858 5855 5851 5848 5845 5842 5841 5840 5840 5841 5841 5842 5843 5844 5845 5845 5845 5845 5845 5845 5846 5847 5848 5848
5880 5880 5879 5878 5878 5877 5877 5876 5875 5875 5875 5875 5875 5875 5875 5875 5874 5874 5873 5870 5867 5863 5859 5855 5851 5848 5846 5842 5838 5834 5831 5828 5828 5829 5830 5831 5833 5834 5836 5837 5838 5839 5838 5839 5839 5840 5841 5842 5843
5876 5875 5874 5874 5873 5873 5873 5871 5871 5871 5871 5871 5871 5871 5870 5870 5869 5868 5865 5863 5859 5855 5852 5847 5843 5839 5837 5833 5828 5823 5818 5815 5815 5817 5819 5821 5824 5826 5828 5829 5830 5831 5832 5832 5833 5833 5835 5836 5837
5872 5871 5871 5870 5869 5869 5870 5868 5867 5866 5866 5866 5866 5866 5866 5865 5863 5862 5859 5855 5851 5847 5844 5841 5837 5833 5829 5823 5816 5809 5803 5801 5803 5806 5809 5812 5815 5817 5820 5821 5823 5824 5825 5825 5826 5827 5828 5830 5831
5868 5867 5867 5866 5865 5865 5865 5863 5863 5862 5862 5861 5861 5861 5861 5860 5858 5856 5853 5850 5846 5842 5839 5836 5831 5827 5822 5815 5806 5797 5792 5791 5793 5797 5801 5804 5807 5809 5812 5814 5815 5817 5818 5819 5820 5821 5822 5823 5825
5864 5863 5862 5862 5861 5861 5860 5860 5859 5859 5859 5858 5858 5857 5856 5854 5852 5850 5847 5844 5841 5837 5834 5830 5826 5821 5815 5808 5799 5793 5789 5787 5786 5791 5795 5797 5800 5802 5804 5806 5808 5810 5811 5812 5813 5814 5816 5817 5819
5860 5860 5859 5859 5858 5858 5857 5857 5857 5856 5856 5855 5853 5852 5850 5848 5846 5843 5841 5838 5834 5831 5828 5825 5821 5816 5811 5805 5799 5794 5790 5787 5786 5788 5790 5792 5794 5795 5797 5799 5801 5803 5804 5806 5807 5809 5810 5811 5813
5858 5858 5857 5856 5855 5855 5854 5854 5854 5853 5851 5850 5848 5846 5844 5842 5839 5837 5834 5831 5827 5824 5821 5818 5814 5810 5806 5801 5797 5794 5791 5789 5788 5787 5788 5789 5789 5790 5791 5793 5794 5796 5798 5799 5801 5803 5804 5806 5807
5857 5856 5855 5853 5852 5851 5851 5851 5850 5848 5846 5844 5842 5840 5837 5834 5831 5828 5825 5822 5818 5816 5813 5811 5808 5804 5800 5796 5793 5791 5789 5788 5787 5786 5785 5785 5785 5785 5786 5787 5788 5789 5790 5792 5794 5796 5798 5799 5801
5855 5854 5853 5851 5850 5849 5849 5847 5846 5843 5841 5839 5836 5833 5830 5826 5822 5819 5816 5813 5811 5808 5805 5802 5800 5797 5794 5791 5788 5786 5785 5784 5783 5782 5781 5781 5780 5780 5780 5781 5781 5782 5783 5785 5786 5788 5790 5792 5794
5853 5853 5852 5850 5849 5848 5846 5845 5843 5839 5837 5834 5830 5827 5824 5820 5817 5813 5810 5807 5804 5800 5797 5794 5790 5787 5784 5782 5780 5778 5777 5776 5775 5774 5774 5773 5773 5773 5773 5774 5774 5775 5776 5777 5779 5780 5782 5785 5787
5852 5852 5851 5849 5848 5847 5845 5843 5840 5836 5833 5829 5826 5823 5819 5815 5811 5808 5804 5800 5796 5792 5788 5785 5781 5777 5773 5770 5768 5766 5765 5764 5764 5764 5763 5763 5763 5763 5764 5764 5765 5766 5767 5768 5770 5772 5774 5776 5779
5851 5851 5850 5848 5846 5845 5843 5840 5838 5833 5829 5826 5822 5818 5814 5810 5805 5800 5796 5792 5787 5783 5778 5774 5770 5766 5762 5758 5754 5752 5750 5749 5749 5749 5749 5749 5750 5750 5751 5752 5754 5755 5757 5758 5760 5762 5764 5767 5770
5849 5848 5847 5845 5843 5841 5839 5836 5834 5829 5825 5821 5817 5812 5807 5802 5797 5791 5786 5781 5777 5772 5767 5763 5758 5754 5749 5745 5741 5738 5735 5733 5732 5731 5732 5733 5734 5735 5735 5737 5739 5741 5743 5746 5748 5751 5753 5756 5760
5847 5845 5843 5841 5839 5837 5835 5832 5828 5824 5820 5815 5811 5806 5800 5795 5789 5783 5777 5771 5765 5759 5754 5749 5744 5739 5735 5730 5726 5723 5719 5717 5715 5713 5712 5713 5714 5715 5717 5719 5722 5725 5728 5731 5735 5738 5741 5744 5748
5844 5842 5840 5838 5835 5832 5830 5827 5824 5819 5814 5809 5804 5798 5793 5786 5780 5772 5765 5758 5750 5743 5737 5731 5726 5722 5718 5714 5710 5706 5702 5699 5696 5694 5692 5691 5692 5694 5696 5698 5702 5705 5710 5714 5718 5723 5727 5731 5735
5841 5839 5837 5834 5831 5829 5825 5823 5817 5812 5807 5802 5796 5790 5783 5776 5768 5760 5752 5744 5735 5728 5721 5715 5709 5704 5700 5695 5691 5687 5683 5679 5675 5673 5671 5670 5669 5670 5672 5675 5679 5683 5688 5693 5699 5704 5710 5715 5720
5838 5836 5834 5832 5829 5824 5820 5819 5810 5805 5800 5794 5788 5781 5774 5766 5757 5749 5740 5732 5724 5716 5709 5702 5695 5688 5682 5676 5670 5664 5659 5655 5651 5648 5646 5645 5645 5646 5648 5651 5655 5659 5664 5670 5677 5684 5690 5697 5704
Wind_Speed
7 6 5 5 4 4 5 7 8 9 10 10 10 8 6 5 6 7 8 10 11 11 12 14 16 15 14 12 11 9 9 7 4 3 2 1 1 1 2 2 2 3 5 7 8 9 10 10 8
9 9 8 7 6 6 6 7 7 7 9 10 11 11 11 10 9 9 10 11 12 12 14 15 16 16 14 13 12 11 10 8 6 4 3 3 3 4 4 4 4 5 5 6 7 6 7 9 9
12 11 11 9 9 7 7 8 7 7 8 9 10 12 13 13 12 12 13 13 14 14 15 16 17 16 15 14 13 12 11 9 8 8 7 7 8 8 8 8 8 8 8 8 7 7 5 5 6
13 14 13 12 12 11 10 11 11 11 10 9 9 11 12 12 12 12 12 13 14 14 15 16 16 16 15 14 13 13 12 12 12 12 13 13 13 12 12 12 12 12 12 11 10 10 8 7 6
16 16 15 15 16 15 15 15 15 15 12 9 8 9 10 10 10 10 11 12 13 14 14 15 14 13 13 13 14 15 15 15 16 17 18 18 18 17 17 16 16 16 16 16 15 14 13 12 10
18 18 18 18 20 20 20 19 19 18 14 9 7 8 9 9 9 10 10 11 12 13 14 15 14 15 15 15 16 16 17 18 19 20 20 21 20 20 20 19 19 19 19 19 19 18 17 16 15
19 19 19 20 22 23 24 23 22 20 16 11 9 8 9 10 9 9 10 11 13 14 16 17 18 19 19 19 19 20 20 21 21 21 22 21 21 21 21 21 22 22 22 22 22 22 22 21 20
21 20 20 22 24 26 26 26 25 23 19 16 12 10 10 10 9 9 10 12 15 17 18 19 20 21 21 22 23 23 23 23 23 23 23 22 22 21 21 21 22 23 24 24 25 25 25 24 24
21 21 20 24 27 28 29 29 28 27 25 22 17 13 12 11 11 12 13 15 18 20 22 23 24 25 25 26 26 27 27 26 25 24 24 23 22 21 21 21 22 22 23 24 26 27 27 27 27
20 19 20 24 28 29 30 31 31 30 28 25 21 17 15 15 15 16 18 20 22 24 26 27 29 31 32 33 34 33 32 30 28 27 27 25 24 23 22 22 23 23 24 24 26 27 28 28 27
18 17 18 22 27 29 30 32 33 33 31 28 24 22 21 19 20 21 22 25 27 28 30 32 34 35 38 40 40 39 37 36 34 31 30 28 26 25 24 24 24 24 25 25 26 26 26 26 26
19 18 19 19 23 27 30 32 34 35 34 32 29 27 25 25 25 25 25 27 29 31 33 35 37 39 41 43 44 43 43 41 40 37 34 31 28 26 25 24 25 25 25 25 26 26 26 25 26
21 20 21 20 22 25 28 32 35 36 35 35 33 31 30 29 30 29 28 28 30 32 34 35 37 40 42 45 45 45 44 44 43 41 37 34 31 28 27 25 25 25 25 26 26 25 25 26 26
21 20 21 23 24 26 29 32 35 37 37 36 35 34 33 34 33 31 30 31 33 34 35 36 37 37 41 44 45 45 47 47 44 44 40 37 34 31 28 26 25 26 25 25 25 25 25 25 25
20 20 22 24 26 27 28 30 32 34 36 37 37 36 35 35 33 31 32 34 35 35 37 41 41 42 43 44 46 48 46 45 44 45 43 40 36 31 27 25 25 25 24 24 24 25 26 26 26
20 20 22 24 25 26 25 26 27 29 32 34 35 35 34 33 33 32 33 36 38 39 41 43 44 46 45 45 47 47 43 41 41 42 43 39 35 30 27 24 23 23 24 24 24 25 26 26 26
20 20 21 22 23 23 23 22 22 23 25 28 30 31 32 32 33 34 35 38 41 43 45 46 45 44 43 43 43 39 33 32 33 36 38 35 32 29 25 22 22 23 24 24 24 25 25 26 26
18 18 19 21 21 21 20 18 17 18 21 24 27 30 31 33 34 36 38 41 43 45 45 44 42 41 40 40 40 34 26 23 25 31 34 30 27 25 23 22 23 24 24 24 24 24 25 25 25
17 17 18 20 20 21 20 18 17 18 21 24 28 31 33 35 37 38 41 42 45 45 44 41 39 38 38 37 36 30 23 18 17 21 26 26 24 23 22 22 24 24 25 24 24 24 24 24 24
15 16 17 18 19 20 21 20 21 22 25 28 30 32 34 37 39 41 43 44 45 44 41 38 37 37 38 37 35 31 27 23 18 17 17 19 21 21 21 23 24 25 26 25 25 25 24 24 24
12 13 13 14 16 18 20 20 21 24 27 30 32 34 36 37 38 39 41 41 40 39 39 39 39 39 39 38 37 34 31 28 24 20 19 20 21 21 22 23 25 26 27 27 27 26 25 25 24
7 8 8 9 11 13 15 16 18 22 25 27 28 29 30 30 30 32 32 34 35 37 39 41 41 41 40 39 38 35 32 30 27 25 23 23 23 24 25 26 26 27 28 29 29 28 28 27 26
4 5 6 7 8 9 11 14 16 19 21 22 23 24 25 27 28 29 31 33 35 37 39 41 43 43 43 42 40 39 37 34 32 30 29 29 28 28 29 30 30 30 31 31 32 31 31 30 29
5 5 7 8 8 10 12 14 16 18 20 22 24 26 28 30 31 33 34 36 37 39 41 43 44 44 45 44 43 42 41 39 38 36 35 35 35 35 34 34 34 35 35 35 35 35 34 33 32
8 8 9 10 10 11 13 14 16 18 21 24 27 29 31 33 35 36 36 37 38 40 41 41 42 43 43 44 44 44 44 44 43 42 41 41 41 42 41 40 40 40 39 39 39 38 37 37 36
10 12 13 15 14 14 15 17 19 22 24 27 30 32 34 35 37 37 38 39 40 40 41 42 42 42 43 44 45 46 47 48 48 48 48 47 47 48 48 48 47 46 45 44 43 42 41 41 40
12 13 15 16 16 17 18 20 23 25 28 31 33 35 36 37 38 40 41 43 44 44 45 46 45 44 43 43 44 45 47 48 50 52 53 54 54 54 54 54 53 53 52 50 49 47 46 45 44
14 15 17 17 19 20 22 24 26 29 31 33 35 36 37 39 41 43 45 47 48 49 49 47 44 42 41 42 43 44 45 46 47 48 51 55 58 59 60 60 59 59 58 58 56 54 52 50 49
14 15 17 18 20 23 26 28 29 31 33 34 36 38 40 42 45 47 50 52 52 51 49 48 47 48 49 49 50 51 52 52 52 52 52 52 54 58 61 64 65 65 65 64 63 62 59 57 55
13 15 17 19 22 25 28 29 31 32 33 35 37 40 43 46 48 50 52 52 50 49 48 49 51 54 56 58 59 61 61 60 58 56 55 55 55 55 58 61 65 68 70 70 68 67 65 64 62
Wind_Direction
212 217 223 236 257 272 305 322 332 336 340 341 341 344 346 334 322 316 305 303 303 304 308 308 302 297 296 295 296 300 308 314 324 346 24 60 51 8 351 343 328 327 339 349 0 18 30 35 42
230 230 234 242 264 277 300 314 318 323 324 325 325 326 327 324 316 308 304 301 302 308 312 309 303 301 299 297 295 297 302 304 305 306 305 300 294 291 292 293 289 287 298 318 335 358 20 31 40
241 242 241 248 261 276 288 306 307 304 311 310 313 315 315 316 312 309 306 303 303 308 310 306 300 299 300 300 298 297 298 297 294 291 289 288 285 282 280 279 275 271 272 284 302 314 333 359 22
245 246 247 250 258 265 275 287 296 295 297 296 301 310 310 314 315 315 314 313 312 312 310 305 302 303 305 306 304 302 300 298 295 291 289 288 286 282 279 276 273 268 264 266 275 287 293 303 320
245 244 246 251 257 264 269 277 287 295 293 291 290 300 308 312 320 322 324 324 321 317 312 308 307 310 311 311 308 305 301 297 294 291 289 287 284 282 278 275 273 271 267 264 265 270 276 280 287
246 244 245 253 260 267 270 274 280 286 286 285 282 282 295 308 316 319 322 321 317 313 310 309 307 309 310 310 308 304 301 298 295 291 289 286 283 280 276 273 272 271 269 267 265 265 267 271 275
252 250 246 251 259 269 275 280 282 284 287 292 290 286 290 295 307 312 311 307 304 303 304 305 305 304 303 301 299 298 296 295 293 291 289 286 283 280 277 273 270 268 267 266 265 264 264 266 270
260 257 250 248 254 265 276 281 285 290 292 295 295 293 293 295 298 300 299 296 294 294 296 298 298 297 295 294 293 292 291 289 289 289 288 284 282 279 276 273 269 266 265 264 263 263 263 265 267
266 263 255 247 252 263 273 279 285 291 295 300 298 290 287 286 291 292 290 288 288 289 290 290 289 289 289 289 288 287 286 284 283 283 283 280 277 276 273 271 268 265 264 262 261 261 262 263 264
267 268 261 253 255 259 266 275 283 289 294 299 297 290 281 279 284 290 290 289 288 288 288 289 288 287 287 286 285 283 280 278 276 276 276 275 274 273 272 271 267 264 262 260 259 259 260 262 263
266 269 267 261 259 261 263 270 279 284 288 292 290 286 282 282 283 286 289 292 292 292 292 291 289 288 286 285 284 283 279 275 273 271 270 270 269 269 269 269 267 263 261 259 258 259 261 263 264
263 264 265 264 262 262 263 265 270 275 279 283 284 284 285 284 284 285 287 289 292 293 292 291 289 289 288 287 287 284 280 276 269 266 266 265 264 265 266 267 265 261 259 259 258 258 259 260 263
263 263 265 262 258 258 258 259 262 266 270 275 277 280 281 283 284 284 282 282 283 285 286 288 290 291 294 290 286 280 277 274 268 263 261 260 259 260 262 262 261 258 257 258 258 258 258 258 260
267 266 264 263 262 260 258 257 259 262 265 269 272 275 277 281 283 283 281 278 277 278 280 289 294 299 303 300 294 287 279 272 265 260 256 255 252 255 258 258 257 255 255 255 257 257 257 257 258
266 265 266 266 267 268 268 266 265 266 265 266 267 270 274 278 281 281 280 280 282 286 291 300 306 312 312 309 305 298 284 272 260 254 252 249 249 251 254 253 253 251 249 250 252 254 254 255 255
268 267 267 270 270 271 272 271 270 268 265 262 262 265 270 276 279 282 283 286 291 298 305 310 311 313 315 314 311 305 288 266 254 249 247 243 244 249 250 250 248 246 245 247 249 250 250 251 253
271 267 267 266 269 272 275 275 273 268 262 258 259 264 271 276 281 285 289 294 299 304 308 311 312 313 314 317 316 310 290 265 249 241 238 237 241 244 244 244 245 244 243 244 246 248 248 249 251
270 267 266 266 267 270 273 276 272 264 259 260 265 272 277 280 283 288 292 297 301 304 306 307 309 311 314 320 323 318 294 265 244 236 236 236 236 238 240 242 244 243 242 242 243 245 246 247 249
272 272 271 271 271 270 270 274 273 268 266 269 274 279 282 284 286 289 292 295 298 300 302 304 305 309 314 319 325 326 312 292 268 251 246 240 239 237 240 244 245 242 240 240 240 242 243 244 244
278 281 282 281 280 278 276 274 276 276 275 277 279 282 285 286 286 288 289 291 293 296 298 301 304 308 313 317 322 323 323 319 303 285 268 256 250 246 245 246 245 242 240 239 238 239 241 241 240
283 288 293 293 289 286 285 283 281 280 281 282 284 286 288 289 288 287 289 290 291 293 295 298 302 305 308 311 314 315 315 313 309 300 283 272 262 255 252 251 248 245 242 240 238 238 238 238 238
281 299 307 303 299 296 292 292 291 289 289 289 291 294 295 296 295 295 295 294 294 295 296 298 299 301 302 304 304 304 303 300 296 290 284 277 270 262 257 254 250 247 245 242 240 238 237 236 236
305 335 344 338 321 309 303 297 293 291 293 297 299 304 305 303 302 303 302 301 299 298 298 298 299 299 299 299 298 296 293 290 285 280 274 271 268 263 259 255 251 248 246 244 242 240 237 236 235
332 344 348 341 328 311 306 298 293 293 297 301 303 305 307 307 307 307 305 303 301 299 298 298 298 297 297 295 293 291 288 284 279 274 269 264 261 259 257 255 251 248 245 243 241 240 239 238 236
314 317 317 314 306 302 305 304 302 303 303 304 305 308 309 309 308 306 305 303 302 300 299 298 297 296 295 293 291 289 285 282 277 272 267 262 259 256 254 252 250 248 245 242 240 239 239 239 238
314 315 317 317 313 309 308 308 307 308 307 308 309 311 312 312 311 310 309 308 306 304 303 301 299 297 295 293 290 288 285 281 277 273 268 263 259 255 253 251 249 247 246 244 241 239 237 238 239
321 320 320 318 317 313 311 308 308 309 308 310 312 314 315 316 315 314 312 311 309 308 306 305 304 302 300 297 294 290 287 283 279 274 269 264 259 255 252 250 248 246 245 243 242 241 238 237 238
320 320 320 319 318 315 312 310 311 309 310 313 315 317 318 318 317 316 315 314 314 313 312 312 312 311 310 307 304 300 296 291 286 280 273 267 261 256 253 250 247 245 243 242 241 241 240 239 238
315 316 318 318 317 315 314 314 314 313 315 317 319 320 320 320 320 319 319 318 317 316 316 316 316 315 313 310 308 304 300 296 292 286 279 272 266 260 254 251 248 245 243 241 240 239 239 238 238
322 323 322 321 319 318 318 316 317 317 319 320 322 322 323 323 323 322 321 319 318 318 317 316 316 315 314 312 309 306 302 298 294 288 281 275 268 263 257 253 249 246 243 241 239 238 237 236 237